Regional Weather Roundup
Issued by NWS

Home | Current Version | Previous Version | Graphics & Text | Print | Product List | Glossary Off
Versions: 1 2 3 4 5 6 7 8 9 10 11 12 13 14 15 16 17 18 19 20 21 22 23 24 25 26 27 28 29 30 31 32 33 34 35 36 37 38 39 40 41 42 43 44 45 46 47 48 49 50

000
ASUS43 KTOP 260659
RWRKS

WEATHER ROUNDUP FOR KANSAS
NATIONAL WEATHER SERVICE GOODLAND KS
200 AM CDT SAT MAY 26 2018

NOTE:  "FAIR" INDICATES FEW OR NO CLOUDS BELOW 12,000 FEET WITH NO
SIGNIFICANT WEATHER AND/OR OBSTRUCTIONS TO VISIBILITY.

KSZ001>006-013>018-027>032-041>047-260800-
NORTHWEST KANSAS

CITY           SKY/WX    TMP DP  RH WIND       PRES   REMARKS
GOODLAND       CLEAR     70  52  52 S14       29.92S
HAYS           CLEAR     68  65  90 S8        29.85F
HILL CITY      CLEAR     72  62  71 SW7       29.85S
RUSSELL        CLEAR     68  67  96 S10       29.83S
$$

KSZ061>065-074>080-084>089-260800-
SOUTHWEST KANSAS

CITY           SKY/WX    TMP DP  RH WIND       PRES   REMARKS
DODGE CITY     CLOUDY    68  64  87 S10       29.90S
GARDEN CITY    CLEAR     68  65  90 S8        29.91S
GREAT BEND     CLEAR     69  65  86 S9        29.86S
LIBERAL        CLEAR     70  66  87 SE9       29.92S
$$

KSZ066>073-081>083-090>101-260800-
SOUTHEAST KANSAS

CITY           SKY/WX    TMP DP  RH WIND       PRES   REMARKS
CHANUTE        CLEAR     67  66  97 S5        29.85S
COFFEYVILLE      N/A     66  65  96 CALM      29.84S
HUTCHINSON     CLEAR     70  65  84 S5        29.84F
MEDICINE LODGE   N/A     70  64  81 S3        29.86S
NEWTON         CLEAR     70  63  78 SW9       29.85F
PARSONS        CLEAR     66  65  96 CALM      29.86S
WICHITA INTL   CLEAR     68  64  87 SW3       29.84F
WICHITA JABRA  CLEAR     72  64  76 SW9       29.84F
WICHITA MCCONL CLEAR     68  62  81 SW6       29.84F
WINFIELD       CLEAR     67  65  93 S3        29.85F
$$

KSZ007>012-019>026-033>040-048>060-102>105-260800-
NORTHEAST KANSAS

CITY           SKY/WX    TMP DP  RH WIND       PRES   REMARKS
CONCORDIA      PTCLDY    73  65  75 SW12      29.80S
EMPORIA        CLEAR     66  63  90 S8        29.84S
LAWRENCE       CLEAR     70  68  93 SE3       29.80S
MANHATTAN      CLEAR     69  65  86 SW3       29.81S
OLATHE IND     CLEAR     70  67  90 S6        29.83S
OLATHE EXE     CLEAR     69  67  93 S6        29.82S
SALINA         CLEAR     73  67  81 S9        29.81F
TOPEKA BILLARD CLEAR     74  69  85 SW5       29.80S
TOPEKA FORBES  CLEAR     72  68  87 S7        29.81S
$$



USA.gov is the U.S. government's official web portal to all federal, state and local government web resources and services.